Location: Caltech
(34.1382°N, 118.1253°W)
Time: 09:39:12
(UTC-08:00)

NOAA 19 - Visible Passes

Search period start: 19 November 2017 00:00
Search period end: 29 November 2017 00:00
Orbit: 842 x 861 km, 99.1° (Epoch: 18 November)

Date Brightness Start Highest point End Pass type
(mag) Time Alt. Az. Time Alt. Az. Time Alt. Az.
19 Nov 7.3 04:38:16 10° N 04:38:46 12° NNW 04:38:46 12° NNW visible
20 Nov 7.4 04:26:30 10° N 04:26:55 12° N 04:26:55 12° N visible
21 Nov 7.5 04:14:49 10° N 04:15:03 11° N 04:15:03 11° N visible
22 Nov 7.6 04:03:12 10° N 04:03:12 10° N 04:03:12 10° N visible
